Binghamton, NY

7:47 AM EST on November 15, 2019 (GMT -0500)
Binghamton Regional-Link

Weather History for KBGM - September, 2019

Change the Weather History Date:

Tuesday, September 3, 2019

  Actual Average Record
Temperature  
Mean Temperature 63 °F 64 °F  
Max Temperature 73 °F 73 °F 96 °F (1953)
Min Temperature 53 °F 55 °F 38 °F (1994)
Degree Days  
Heating Degree Days 2 3  
Month to date heating degree days 7 9  
Since 1 July heating degree days 44 72  
Cooling Degree Days 0 2  
Month to date cooling degree days 0 6  
Year to date cooling degree days 362 354  
Growing Degree Days 13 (Base 50)    
Moisture  
Dew Point 57 °F    
Average Humidity 81    
Maximum Humidity 100    
Minimum Humidity 61    
Precipitation  
Precipitation 0.00 in 0.11 in 1.19 in (1974)
Month to date precipitation 1.28 0.34  
Year to date precipitation 30.07 26.55  
Snow  
Snow 0.00 in 0.00 in 0.00 in (2002)
Month to date snowfall 0.0 0.0  
Since 1 July snowfall 0.0 0.0  
Since 1 September snowfall 0.0 0.0  
Snow Depth 0.00 in    
Sea Level Pressure  
Sea Level Pressure 30.05 in    
Wind  
Wind Speed 4 mph (WSW)    
Max Wind Speed 10 mph    
Max Gust Speed 14 mph    
Visibility 5 miles    
Events Fog    
T = Trace of Precipitation, MM = Missing Value Source: NWS Daily Summary

Daily Weather History Graph

Daily Weather History Graph

Search for Another Location

Airport or City:

Astronomy

Sep. 03, 2019 Rise Set
Actual Time 6:31 AM EDT 7:34 PM EDT
Civil Twilight 6:02 AM EDT 8:03 PM EDT
Nautical Twilight 5:28 AM EDT 8:37 PM EDT
Astronomical Twilight 4:52 AM EDT 9:13 PM EDT
Moon 11:26 AM EDT (9/3) 10:24 PM EDT (9/3)
Length of Visible Light 14h 00m
Length of Day
13h 03m
Waxing Crescent, 24% of the Moon is Illuminated
Sep 3
Waxing Crescent
Sep 5
First Quarter
Sep 14
Full
Sep 21
Last Quarter
Sep 28
New

Hourly Weather History & Observations

Time (EDT) Temp. Dew Point Humidity Pressure Visibility Wind Dir Wind Speed Gust Speed Precip Events Conditions
12:53 AM 57.9 °F 55.9 °F 93% 30.07 in 10.0 mi West 4.6 mph - N/A   Clear
1:53 AM 57.0 °F 55.9 °F 96% 30.05 in 7.0 mi Calm Calm - N/A   Clear
2:29 AM 57.0 °F 55.9 °F 96% 30.05 in 1.8 mi Calm Calm - N/A   Clear
2:39 AM 57.0 °F 55.9 °F 96% 30.05 in 3.0 mi West 3.5 mph - N/A   Clear
2:53 AM 57.0 °F 55.9 °F 96% 30.03 in 8.0 mi West 3.5 mph - N/A   Clear
3:13 AM 57.0 °F 55.9 °F 96% 30.05 in 2.5 mi West 5.8 mph - N/A   Partly Cloudy
3:15 AM 57.0 °F 55.9 °F 96% 30.05 in 1.0 mi West 5.8 mph - N/A   Mist
3:19 AM 55.9 °F 55.9 °F 100% 30.05 in 0.2 mi West 4.6 mph - N/A Fog Fog
3:53 AM 55.0 °F 55.0 °F 100% 30.04 in 0.2 mi West 4.6 mph - N/A Fog Fog
4:14 AM 54.0 °F 54.0 °F 100% 30.04 in 0.8 mi West 3.5 mph - N/A   Mist
4:28 AM 55.0 °F 55.0 °F 100% 30.05 in 0.2 mi West 3.5 mph - N/A Fog Fog
4:38 AM 55.9 °F 55.0 °F 97% 30.05 in 0.8 mi West 4.6 mph - N/A   Mist
4:40 AM 55.0 °F 55.0 °F 100% 30.05 in 1.2 mi West 5.8 mph - N/A   Scattered Clouds
4:44 AM 55.0 °F 55.0 °F 100% 30.05 in 3.0 mi West 5.8 mph - N/A   Scattered Clouds
4:48 AM 55.4 °F 53.6 °F 94% 30.05 in 1.5 mi West 4.6 mph - N/A   Scattered Clouds
4:50 AM 53.6 °F 53.6 °F 100% 30.05 in 0.8 mi West 4.6 mph - N/A   Mist
4:53 AM 54.0 °F 54.0 °F 100% 30.05 in 0.5 mi WSW 4.6 mph - N/A Fog Fog
4:57 AM 54.0 °F 54.0 °F 100% 30.05 in 0.2 mi West 4.6 mph - N/A Fog Fog
5:14 AM 55.0 °F 54.0 °F 96% 30.05 in 0.5 mi West 4.6 mph - N/A Fog Fog
5:25 AM 55.0 °F 54.0 °F 96% 30.06 in 3.0 mi WNW 5.8 mph - N/A   Scattered Clouds
5:39 AM 54.0 °F 54.0 °F 100% 30.06 in 1.8 mi West 4.6 mph - N/A   Scattered Clouds
5:49 AM 53.6 °F 53.6 °F 100% 30.07 in 0.8 mi West 4.6 mph - N/A   Mist
5:53 AM 54.0 °F 54.0 °F 100% 30.06 in 0.5 mi West 4.6 mph - N/A Fog Fog
6:01 AM 55.9 °F 55.0 °F 97% 30.07 in 1.5 mi WNW 8.1 mph - N/A   Scattered Clouds
6:03 AM 55.9 °F 55.9 °F 100% 30.07 in 3.0 mi WNW 5.8 mph - N/A   Scattered Clouds
6:15 AM 55.0 °F 55.0 °F 100% 30.08 in 1.5 mi WNW 4.6 mph - N/A   Scattered Clouds
6:18 AM 55.0 °F 55.0 °F 100% 30.08 in 0.8 mi WNW 4.6 mph - N/A   Mist
6:38 AM 54.0 °F 54.0 °F 100% 30.09 in 0.2 mi Calm Calm - N/A Fog Fog
6:53 AM 53.1 °F 53.1 °F 100% 30.09 in 0.2 mi Calm Calm - N/A Fog Fog
7:35 AM 54.0 °F 54.0 °F 100% 30.10 in 0.2 mi Calm Calm - N/A Fog Fog
7:45 AM 54.0 °F 54.0 °F 100% 30.10 in 0.2 mi Calm Calm - N/A Fog Fog
7:53 AM 54.0 °F 54.0 °F 100% 30.09 in 0.2 mi Calm Calm - N/A Fog Fog
9:00 AM 57.0 °F 57.0 °F 100% 30.10 in 1.0 mi Calm Calm - N/A   Overcast
9:33 AM 57.9 °F 57.9 °F 100% 30.10 in 1.0 mi Calm Calm - N/A   Overcast
9:53 AM 59.0 °F 59.0 °F 100% 30.09 in 1.0 mi SE 3.5 mph - N/A   Overcast
10:01 AM 59.0 °F 59.0 °F 100% 30.10 in 2.0 mi ESE 3.5 mph - N/A   Overcast
10:53 AM 61.0 °F 57.9 °F 90% 30.10 in 2.5 mi Calm Calm - N/A   Overcast
11:53 AM 63.0 °F 59.0 °F 87% 30.09 in 2.5 mi Calm Calm - N/A   Overcast
12:07 PM 63.0 °F 59.0 °F 87% 30.11 in 10.0 mi Calm Calm - N/A   Overcast
12:21 PM 64.9 °F 60.1 °F 84% 30.10 in 10.0 mi Calm Calm - N/A   Overcast
12:53 PM 66.0 °F 59.0 °F 78% 30.08 in 10.0 mi Variable 3.5 mph - N/A   Overcast
1:02 PM 66.9 °F 59.0 °F 76% 30.09 in 10.0 mi WNW 3.5 mph - N/A   Mostly Cloudy
1:31 PM 70.0 °F 60.1 °F 71% 30.08 in 10.0 mi West 6.9 mph - N/A   Scattered Clouds
1:53 PM 70.0 °F 61.0 °F 73% 30.06 in 10.0 mi Variable 4.6 mph - N/A   Scattered Clouds
2:10 PM 71.1 °F 61.0 °F 70% 30.07 in 10.0 mi Variable 5.8 mph - N/A   Mostly Cloudy
2:38 PM 71.1 °F 60.1 °F 68% 30.06 in 10.0 mi West 5.8 mph - N/A   Mostly Cloudy
2:53 PM 71.1 °F 60.1 °F 68% 30.04 in 10.0 mi WSW 4.6 mph - N/A   Partly Cloudy
3:53 PM 72.0 °F 60.1 °F 66% 30.00 in 10.0 mi SE 9.2 mph - N/A   Partly Cloudy
4:53 PM 73.0 °F 59.0 °F 61% 30.00 in 10.0 mi SSW 9.2 mph - N/A   Partly Cloudy
5:53 PM 72.0 °F 60.1 °F 66% 29.98 in 10.0 mi South 8.1 mph - N/A   Mostly Cloudy
6:53 PM 69.1 °F 60.1 °F 73% 29.97 in 10.0 mi South 6.9 mph - N/A   Mostly Cloudy
7:53 PM 68.0 °F 60.1 °F 76% 29.98 in 10.0 mi South 5.8 mph - N/A   Clear
8:53 PM 66.9 °F 59.0 °F 76% 29.99 in 10.0 mi South 5.8 mph - N/A   Clear
9:53 PM 66.9 °F 57.9 °F 73% 30.00 in 10.0 mi South 5.8 mph - N/A   Mostly Cloudy
10:53 PM 66.0 °F 57.9 °F 75% 29.98 in 10.0 mi South 6.9 mph - N/A   Partly Cloudy
11:53 PM 66.0 °F 57.9 °F 75% 29.95 in 10.0 mi South 9.2 mph - N/A   Clear